Simultaneous Nadir Overpasses (SNOs) Predictions

Prediction of SNOs between METOP-B and TERRA Satellite Orbit:

Table of predicted SNOs for the next 14.0 days since TLE Epoch: 5/12/2016
Index Date (METOP-B) Time (METOP-B) Lat,Lon (METOP-B) SZA (METOP-B ) Date (TERRA) Time (TERRA) Lat,Lon (TERRA) SZA (TERRA ) Distance(km) Time Diff (sec)
1 05/12/2016 04:37:43 81.27, 157.29 65.99 05/12/2016 04:37:48 81.27, 157.42 66.01 2.30 5
2 05/12/2016 05:28:23 -81.28, -34.93 113.97 05/12/2016 05:27:15 -81.27, -35.03 114.02 1.86 68
3 05/14/2016 23:21:27 -81.27, 56.10 114.72 05/14/2016 23:22:40 -81.26, 56.00 114.70 1.69 73
4 05/15/2016 00:12:07 81.27,-136.40 65.30 05/15/2016 00:12:06 81.27,-136.24 65.32 2.66 1
5 05/15/2016 01:02:43 -81.29, 32.95 114.46 05/15/2016 01:01:29 -81.35, 32.85 114.48 6.21 74
6 05/17/2016 18:55:51 -81.26, 122.40 115.37 05/17/2016 18:56:58 -81.26, 122.32 115.35 1.64 67
7 05/17/2016 19:46:30 81.27, -69.72 64.70 05/17/2016 19:46:23 81.28, -69.58 64.72 2.58 7
8 05/20/2016 14:30:13 -81.27,-170.95 115.93 05/20/2016 14:31:14 -81.27,-171.05 115.92 1.72 61
9 05/20/2016 15:20:53 81.27, -3.45 64.08 05/20/2016 15:20:40 81.27, -3.34 64.09 1.84 13
10 05/23/2016 10:04:36 -81.27,-104.32 116.46 05/23/2016 10:05:31 -81.28,-104.47 116.45 2.57 55




NCC Satellite Simultaneous Nadir Overpasses (SNOs) Prediction Service
